CAPE
1789 1719 1829 1703 1865 1658 1897 2561 2604 2705 2402 2680 2017 3326 3046 2897 2956 2069 2064 1653 1335 1096 1228 995 963 810 798 1139 744 1131 1112 1204 1312 1697 1902 2072 2356 2544 2601 2581 2479 2506 2265 2115 2166 2094 2096 2082 2053 2084 2015 2001 1929 1915 1944 1968 1830 1894 1909 1668 1726 1686 1772 1682 2041 2061 2158 2361 2107 2254 2122 2025 1993 2011 1918 1830 1805 1476 1353 1158 996 1069 974 882 1122
1817 2202 2122 2427 2671 2508 2824 2343 2198 2639 2424 2521 2628 2616 2923 2669 2998 2316 1568 1802 1539 1656 1758 982 846 698 729 615 886 636 1212 1251 1336 1500 1759 1818 1912 2423 2549 2497 2462 2390 2340 2186 2007 2126 2084 1995 2149 2017 1916 1736 1981 1877 1928 1690 1839 1710 1716 1636 1609 1709 1580 2054 2127 2074 2105 2263 2232 2216 2203 2079 2045 1936 1912 1870 1836 1681 1298 1190 1091 979 817 1127 762
2250 2540 2757 2841 2813 2992 2894 2724 2783 2638 2687 2025 2576 3006 3344 2837 2732 2516 2962 2974 2356 2394 1758 1268 1498 1057 936 640 587 924 992 1230 968 1241 1095 1227 1646 2223 2445 2339 2469 2321 2134 2258 2260 1943 2070 1984 1772 1589 1786 1634 1855 1673 1522 1581 1787 1795 1576 1674 1654 1667 1910 2019 2068 2095 2128 2267 2295 2164 2217 2180 2074 1865 1928 1996 1848 1690 1356 1139 1276 1246 848 837 1144
1914 2606 2380 2742 2801 3101 3212 2842 3171 3116 2864 2569 2899 3028 3998 2981 2891 2825 2575 2572 2188 1832 2033 1774 1512 1075 1258 639 620 583 995 895 578 742 1244 1724 1587 1635 2153 2345 2162 2274 2164 2047 2101 2004 2092 1924 1885 1784 1910 1954 1880 1642 1669 1491 1586 1611 1690 1590 1664 1772 1911 1806 1958 2028 1961 2261 2230 2116 2288 2176 1921 1896 1793 1878 1876 1720 1445 1020 1154 1292 1251 812 674
3640 2637 2773 2949 3252 2818 2847 2798 3072 3042 2609 2753 3238 3140 2624 2659 2906 2904 3165 2594 2050 1995 1618 1188 1175 1225 939 842 816 1108 1039 390 320 436 881 1689 2106 1653 1897 1658 1703 2162 2254 2090 2108 2116 1853 2032 2140 1965 1622 1868 1656 1621 1421 1555 1614 1674 1548 1676 1785 1845 1985 1932 1982 2151 2072 2181 2135 2163 2134 2051 2032 2025 1901 1752 1812 1714 1523 979 1129 1232 1239 1207 1177
3265 2968 3282 2414 2890 3354 2724 2798 3652 3060 3348 3282 3351 3543 3253 2951 2472 2710 2586 2314 1859 1820 1843 1604 1567 1507 863 928 986 994 840 489 355 462 640 840 1731 2207 2473 2400 2343 2326 2380 2378 2263 2072 2100 2189 2213 1996 2137 1927 1904 1783 1832 1780 1706 1617 1622 1672 1730 1880 2002 2015 2234 2335 2166 2161 2190 2078 2073 2058 1938 1958 1893 1726 1658 1674 1614 1300 992 1056 1026 1134 1208
3170 2848 3011 2890 2051 3388 2554 2754 2999 3513 3626 3384 3615 3572 3566 3207 3099 3257 2598 2740 1775 1993 1614 1891 1673 1501 1827 1505 1424 1366 1422 799 757 592 789 822 1167 1353 1910 2563 2701 2452 2178 2360 2313 2352 2502 2417 2170 2302 2304 2272 2236 2258 2171 2107 1912 1811 1821 1805 1884 2016 2124 2225 2311 2373 2328 2228 2077 2030 2029 1943 1958 1961 1918 1912 1703 1556 1532 1425 1409 1385 1281 1179 1046
3475 3384 2963 2807 2264 2569 3161 3233 2950 3574 3701 3622 3587 3177 3590 3191 2963 2836 3536 2809 2409 1745 1966 2006 1223 1394 1575 2116 1708 1912 1658 1530 1506 703 640 1092 1166 996 1364 2386 2693 2904 2869 2034 2082 2015 2714 2659 2425 2356 2303 2423 2479 2474 2470 2429 2353 2340 2329 2257 2199 2303 2324 2406 2416 2415 2450 2334 2260 2159 2092 2054 2034 2086 1916 1895 1797 1764 1694 1693 1648 1626 1558 1376 1161
3135 3157 3582 3112 2790 2775 2939 2769 3021 3154 3584 3939 3503 3131 3825 3306 4127 3491 3129 3448 2258 1347 1499 2268 1349 1093 1113 914 1168 2613 2136 3243 994 874 1299 1833 1285 1120 1425 1679 2142 2212 2826 3080 2770 2309 2506 2991 2501 2370 2418 2532 2675 2592 2473 2336 2422 2463 2600 2719 2920 2838 2620 2689 2707 2769 2820 2766 2663 2528 2531 2479 2455 2328 2211 2224 2202 2221 2161 2049 1978 1867 1385 1619 1560
3430 3375 3493 2474 2776 2783 2910 3519 3623 3878 4207 4139 3643 2670 2716 3061 3683 3921 3333 3445 2708 1799 1403 1294 1272 1139 1172 1150 2036 2002 1693 1718 1570 1576 2152 1936 1821 1324 1338 1150 1622 1310 1607 1958 2685 3415 1943 2648 3002 2831 2806 2810 2766 2707 2564 2583 2688 2668 2579 2579 2703 2959 3062 2847 2866 3035 3093 3022 2976 2892 2928 2953 2908 2849 2708 2554 2560 2584 2646 2634 2533 2468 2326 2394 1981
3492 3202 3388 2434 3043 2856 3368 3424 3450 4288 4175 3469 3160 3004 3038 2954 2953 3994 3910 3239 3792 2899 2063 1858 881 778 763 826 1496 1901 1601 1262 1660 1835 1737 1019 840 710 602 1546 1438 1695 1562 967 2066 3308 2458 2325 2644 2686 2608 3076 3066 2873 2940 2944 2660 2622 2718 2773 2922 2948 3081 3302 3291 3139 3091 3096 3159 3274 3300 3299 3373 3434 3451 3351 3206 3259 3240 3092 2978 2932 2702 2566 2275
3375 3104 3100 3052 3030 3130 2898 3168 3718 3802 3935 3440 2874 3163 2778 3004 2922 2707 3304 3319 3082 2859 1883 1907 1184 1890 1520 1722 1512 1660 1345 1146 1248 1207 1397 1284 686 831 557 738 722 670 897 941 1275 1772 2981 2986 3190 2944 2763 2759 3231 3230 3284 3095 3022 3157 3213 3352 3458 3476 3442 3440 3498 3583 3576 3523 3576 3628 3677 3671 3669 3706 3758 3799 3849 3792 3609 3482 3355 3222 3058 2755 2394
2682 3179 2934 2860 3278 2868 3586 2990 3275 3734 3737 3666 3001 3314 3217 3461 3335 3809 3397 3407 2962 2200 1675 1963 2547 1715 2786 1187 1154 1084 1274 1175 1351 710 620 748 954 1122 1267 849 1041 1168 1191 832 779 1527 1924 2668 2660 3750 3612 3483 2832 3328 3514 3661 3740 3593 3601 3692 3815 3585 3612 3513 3676 3664 3692 3747 3757 3874 3902 3922 3898 3962 4047 4044 4024 3989 3948 3875 3764 3643 3442 3299 3052
2062 2854 2952 2932 3136 2899 3570 3676 4073 4117 3464 3052 3119 4004 3614 3536 3260 3806 4025 3565 2412 1298 1178 1670 2118 1392 1628 1251 1634 1595 2056 980 835 600 321 486 525 878 513 497 554 536 501 789 698 924 1443 2036 2856 2994 4194 4140 2732 2955 2868 3405 3817 3986 4102 4012 3860 3759 3730 3787 3800 3900 3988 4020 3947 4142 4194 4236 4268 4313 4333 4266 4144 4104 4049 3936 3835 3835 3797 3604 3417
2304 2670 3185 2954 2702 2924 3852 3760 3394 3752 3859 3567 3459 3730 3297 3129 2891 3622 2990 3059 2587 1478 1632 1780 1394 1346 1530 1990 1114 1372 1682 1423 1174 540 318 364 328 411 668 558 595 697 828 1025 1223 1483 1393 1552 1580 1796 2622 3375 3942 3495 3820 3655 3567 3893 3702 3719 3958 4167 3968 4032 4082 4205 4263 4245 4310 4278 4282 4306 4290 4241 4263 4221 4137 4192 4165 4024 3913 3827 3748 3653 3640
2158 2824 3228 3249 3359 3562 3558 3888 3541 3459 4233 4022 3229 3319 3460 3673 3202 3632 3702 1972 1139 1068 1252 1858 1646 1785 1632 1594 1290 1199 1301 1902 1745 1132 298 263 341 250 363 319 443 480 1729 1464 1402 1188 374 1126 1360 2894 2519 2472 3131 3620 3888 4646 4645 5415 5139 3903 3204 3378 3991 3921 3686 3775 3808 3784 3896 3943 3984 4043 4085 4054 4068 4002 3952 4048 4122 4121 4045 3947 3812 3778 3652
2100 2700 2698 2740 3002 4019 3612 3808 3819 3824 3726 3684 3694 2958 2840 2814 3781 4049 3595 3527 989 940 1203 982 1546 2150 4142 1259 1767 1527 1501 808 336 2277 334 224 262 38 182 365 240 383 1294 863 1065 911 1272 1680 2764 2680 3297 3502 2734 2839 3201 3530 4262 5524 5251 4838 4052 3615 3514 3593 3526 3500 3475 3403 3394 3517 3676 3724 3769 3785 3871 4005 4039 4109 4087 4042 3982 3926 3863 3826 3785
2291 2791 3067 3114 3712 3074 3158 3233 3182 4206 3937 3562 3402 3722 3072 2470 3584 3240 3184 3258 4452 797 916 1406 1013 1747 1803 1872 1143 2110 1212 998 867 1708 1161 810 348 60 314 339 56 456 1242 394 592 1157 1747 1550 2300 2769 2588 2849 3625 3505 3723 2291 5424 4609 5541 5368 5216 4286 3932 4269 4190 3395 3020 2978 3033 3206 3366 3558 3776 3818 3899 3834 3764 3890 3983 3972 3993 3953 3887 3817 3821
2008 2810 3040 2550 3896 3358 3523 3313 3405 3533 4151 3904 3662 3054 1982 2644 2819 2971 3297 3696 3283 3679 1363 1113 2288 2140 830 382 900 1063 1035 1985 1759 1495 2488 1360 2233 35 153 382 191 302 588 211 493 1013 468 1777 1601 2003 2340 2513 2402 1868 2592 3284 2829 2820 4289 4863 4978 4873 4260 3706 3594 3054 2701 2848 2996 3307 3537 3654 3745 3719 3692 3756 3792 3838 3883 3922 3855 3871 3914 3909 3745
2744 3502 3175 3600 3609 3822 3654 3618 3693 2909 3794 3784 3230 2396 2282 2738 3391 4123 4178 5302 3505 3596 2590 1345 1105 1978 2032 1433 419 490 1074 1326 836 1006 1663 2312 1200 568 220 227 288 334 571 458 596 460 363 390 834 1799 1473 1121 1640 2150 2843 3513 5065 4448 3857 3133 3294 2931 3050 2567 2692 2832 2906 3078 3436 3432 3440 3517 3580 3660 3728 3674 3595 3582 3514 3476 3307 3342 3321 3366 3314
3488 3148 3198 3400 4040 3715 3548 3966 3382 3453 3585 3216 2540 2605 2680 3545 3810 4157 3761 4024 3328 3803 3074 3132 1864 984 2145 3354 2068 2054 472 620 522 1063 1587 1773 686 594 281 173 278 609 1083 400 249 659 618 871 1073 829 1454 1741 2326 2299 3571 3916 3976 2655 2080 1726 2396 3082 2746 2871 2890 2977 3197 3151 3124 3279 3420 3498 3616 3612 3539 3418 3370 3304 3210 3290 3331 3326 3355 3314 3192
3315 3388 3609 3246 3576 4073 3370 3401 3546 3104 2803 2783 1976 3061 3085 3598 3579 3110 3400 2905 4483 3676 2569 3340 1774 2151 1730 2869 3044 2646 2085 1216 260 780 983 730 1559 542 451 1014 1738 1122 1485 556 1052 719 653 982 1143 1382 2767 2663 3347 3818 3651 3212 3115 2733 2328 2502 2595 2925 2798 2860 2926 3109 3021 3046 3122 3177 3355 3462 3485 3459 3288 3151 3186 3280 3280 3321 3340 3335 3299 2988 2781
2924 3616 3201 2787 3145 3386 2483 3074 2745 3610 3201 2392 2908 2056 2895 2859 2505 3064 3358 3488 3539 3242 2571 2476 3449 2431 1695 2698 3202 1951 2134 1846 1049 887 1680 1187 1657 1407 223 235 214 1097 899 991 1864 398 1145 1263 1441 1859 2950 3184 3882 4110 3920 3174 3144 2974 2452 2432 2667 3463 3482 2873 2853 2954 3023 3087 3190 3232 3229 3374 3429 3151 3218 3274 3300 3229 3248 3215 3254 3062 2567 2166 1979
2946 3047 2454 2129 3222 3185 2867 2991 3227 3145 3517 3848 3186 2448 2286 2549 2989 3745 4151 3938 4088 3224 2572 2498 1857 2409 2074 1321 1833 1504 1486 915 877 2901 1725 1845 1571 1706 1241 373 1223 365 570 543 1090 1155 1088 1285 1555 2057 2563 3695 3655 4317 5754 3655 3451 2972 3025 2884 3584 3826 3796 3245 2958 3054 3132 3135 3122 3126 3055 3074 3090 3176 3170 3082 3002 2999 2997 2796 2450 2152 1882 1708 1467
2665 2990 2174 2649 3161 3361 2721 3816 3543 2812 3819 3828 3687 2651 3658 3185 3754 2809 3465 3257 3463 3249 3181 2388 1873 1912 1031 1094 829 597 508 485 627 257 1072 2896 2234 1711 972 1097 2163 1107 1152 392 784 561 1066 1667 2168 2379 2939 3244 4336 4414 3956 4216 3962 3241 3626 3688 3924 4110 3880 2971 3080 3091 3040 2988 2987 2977 2982 2946 2894 2878 2783 2823 2407 2191 2115 1892 1954 1831 1611 1304 1124
2226 2905 2356 2367 2816 3030 3405 3795 4031 3934 3906 3085 3072 3838 4219 4043 4110 3874 2778 3559 3573 3325 3388 2403 2400 1791 1545 1644 1010 591 518 164 400 473 211 324 796 1455 3207 2524 1108 1110 742 1007 806 1185 712 1880 1653 2192 3280 2086 3543 4137 2702 3105 3172 2678 2860 3550 3742 4128 3622 3064 3074 2917 2845 2921 2873 2808 2741 2629 2574 2604 2743 2410 1898 1736 1431 1552 1396 1372 1141 906 721
2916 3102 2679 2945 3044 3156 3222 3601 3951 4227 4050 4130 3989 4013 4252 4230 5656 3595 3749 3840 3439 2919 2803 2091 1309 1440 1475 1926 1776 1166 1219 808 774 340 854 1182 1706 1913 2555 2169 2849 2636 665 1989 1221 866 1719 1571 2334 3075 3895 3720 3939 5678 3478 3117 2967 2605 2408 4649 4163 4149 2986 3053 3116 3322 3036 2711 2665 2518 2439 2441 2412 2334 2320 1873 1597 1268 1266 1097 796 667 387 422 302
2916 3037 2679 2895 3156 3109 3353 3005 3920 3662 3897 3829 4080 3828 4301 4024 4055 4273 4429 2921 3259 2858 3067 1926 1341 1512 1354 1620 2022 1408 1614 1017 961 1138 1937 2067 2736 2686 3282 2681 3228 3481 3193 2069 1089 1178 443 1725 2674 3484 4032 4057 3559 4969 3792 3414 3374 3108 2846 5171 4063 3841 3029 2963 3333 3508 3185 2527 2369 2301 2350 2358 2205 1996 1818 1715 1337 1282 1216 613 452 373 362 418 412
2762 2436 2875 3286 3415 3217 2713 2457 3674 3857 4054 4041 3883 4302 4277 4549 4398 4563 4521 3298 3547 3442 2758 2661 2029 1031 1367 1372 1968 1951 1986 2371 1785 1752 2766 3104 2289 2978 2137 3400 3167 3690 3515 3513 2880 2569 2131 894 3306 4522 3790 4270 5036 5291 4213 4778 3534 3350 3014 4177 4413 4257 2954 3161 3445 3598 3291 2482 2245 2229 2283 2166 2053 1822 1569 1424 1306 1245 828 860 726 496 390 398 445
1717 1558 2492 2881 3526 3326 3293 3112 2926 3172 3358 3403 3752 3879 4160 4021 3975 4684 4234 3924 3853 4008 3628 2817 2242 2263 1553 1568 1178 1552 1807 1570 1543 1054 3076 2072 1898 1933 2248 3387 2937 3431 4025 3385 3708 3092 2594 2036 1460 3292 4978 4348 4452 4396 4830 5047 3222 3334 3798 3092 4562 3958 3012 3082 3468 3682 3301 2664 2182 2183 2117 2066 1858 1676 1492 1375 1261 1137 1206 1303 1088 691 514 430 367
3020 3411 2614 2372 2968 3216 3647 2941 3354 3391 3189 3282 3730 3847 3979 4527 3868 3977 4050 4595 4946 4523 4174 3598 3300 2686 2526 2093 2486 2135 2368 1649 1911 1267 2026 2277 2234 2555 2941 5416 4003 5433 4656 4061 3395 4756 2974 2809 2568 2365 3654 4816 2775 2487 2893 3869 3939 3501 3286 3481 4804 3544 2867 3144 3620 3740 3265 2920 2369 2035 2016 1939 1812 1588 1483 1312 1220 1154 1568 1609 1360 993 650 478 448
1973 2488 2632 2443 2491 2452 2187 2023 2108 2481 2786 2870 2957 3642 4191 4316 3466 3766 3425 3956 4168 4003 3509 3250 2046 3150 3105 2646 2705 2732 2708 2519 2391 2204 2264 2812 2506 2126 1862 3094 3369 3142 3725 4339 3658 3963 3786 2719 2890 2413 1919 4224 3412 3147 3909 3756 4632 3576 3127 3491 5212 3400 3195 3288 3636 3728 3254 3002 2754 2395 1869 1818 1679 1577 1353 1259 1162 1362 1594 1739 1576 1230 911 578 454
1700 1815 2528 2638 2591 2657 2203 2460 2122 2618 3149 2941 3002 3410 3830 4206 4107 3860 3580 4232 4035 3931 3968 3681 2598 2840 3360 3317 3233 3074 3146 2764 2959 2440 1874 2088 2091 2070 2919 3612 3035 3380 3389 3329 2932 3598 4109 4003 3748 2856 2841 3037 2939 3390 3258 3997 4389 3970 3469 4182 4150 3910 4174 3641 3788 3529 3262 3075 2954 2569 1846 1503 1552 1406 1264 1148 1180 1357 1553 1663 1644 1422 1039 796 544
1405 1339 2036 1563 2349 2441 2208 2134 2160 2438 3388 3345 2396 2704 3488 3797 3675 2726 3131 4190 4272 4149 3906 3874 3774 3192 3700 3824 3668 3294 3585 3314 2877 2357 2160 1517 1754 1446 1842 2165 2766 2971 3450 3670 3810 3347 3549 3950 3937 4479 3636 2946 2477 4046 4561 3782 3870 3714 3896 4124 3975 3745 4418 4144 3547 3347 3232 3160 3105 2506 2217 1880 1419 1229 1212 1277 1292 1434 1500 1588 1570 1474 1140 835 693
1092 1256 1842 1698 2270 2589 2253 2363 2494 2284 3182 2837 2514 2624 3137 3665 3490 2849 2265 3413 4347 4170 3830 3841 3525 3391 3419 3856 3594 3468 2507 3002 3212 2744 2306 1912 1628 1564 1516 1787 2190 2188 3271 3635 3367 3587 3706 4128 4354 3261 3172 4777 4297 4352 4287 3829 3853 4051 3941 3734 4143 3250 3678 4166 3638 3340 3246 3350 3095 2499 2428 2194 1780 1684 1432 1390 1416 1479 1475 1494 1489 1447 1320 971 680
648 1153 1492 1772 2362 2688 2553 2712 2882 2116 3204 2503 2545 2586 3282 3366 3426 3603 3650 3366 3396 3349 3336 3321 3134 3330 3218 3496 3316 3181 3027 3080 3196 3074 3030 2756 2408 2446 2615 4163 3686 2826 3030 5103 4107 3654 3988 4024 4529 4474 4054 4183 4616 4516 4195 4376 4028 4006 3955 3635 3892 3619 4127 3685 4089 3614 3589 3312 2827 2492 2512 2400 2175 2250 1949 1406 1490 1582 1490 1450 1429 1387 1392 1209 777
619 840 1350 1879 2332 2686 2084 2344 2670 2504 2769 2751 2833 2379 2268 2546 3134 2993 3068 3254 3218 3221 3127 3307 3347 3340 3233 3015 3122 3294 3376 3211 3468 3244 3008 2925 2668 2447 2449 2378 2938 2802 2670 2973 3656 4482 4525 4243 4282 4384 5206 4966 4456 4644 4804 3974 4570 4960 4953 5249 4931 4142 4422 4040 3917 3926 3507 3140 2580 2440 2549 2673 2563 2454 2219 1801 1529 1476 1617 1503 1491 1386 1368 1333 910
521 701 1184 1268 1878 2378 2142 2167 2247 2529 2525 2749 2835 2587 1969 1993 2472 2656 2955 2871 2482 2785 2825 2927 3010 2881 2595 2907 2976 3178 3103 3029 2930 3122 3247 3131 3027 2651 2609 3237 3036 2894 3227 3641 4111 4139 4606 4851 4820 4969 5243 5072 4654 4595 4770 5297 4689 4190 4688 4443 3758 3985 4938 4758 3706 3488 3226 3035 2717 2639 2698 2684 2609 2390 2292 2140 2009 1720 1378 1299 1375 1513 1388 1391 1120
460 200 901 1286 1501 2083 2278 2248 2059 2370 2539 2485 2808 2827 2541 2176 2153 2146 1984 2140 1963 2000 2007 1984 1796 2024 2191 2261 2668 2841 2834 3032 2915 2894 3338 3271 2919 2884 3457 3301 3118 3653 4170 3912 4196 4544 4482 4433 4544 4519 4410 4544 4442 4488 4680 4208 3884 3701 4401 4980 4774 4525 5173 5671 5514 3878 3515 3022 2796 2852 2755 2503 2444 2303 2222 2216 2079 1955 1694 1435 1069 1498 1538 1348 1321
550 270 145 1148 1514 1418 2115 2025 2248 2493 2774 2546 2904 3099 2602 2283 2051 2188 1754 1584 1456 1567 1505 1797 1537 1284 1609 1710 1425 1983 2374 2857 3000 3009 3168 3240 3300 3022 3099 3403 3767 3637 3369 3409 4012 4157 4209 4056 4311 4172 4234 4537 5232 4663 4885 5072 3906 4156 4428 3794 4049 4906 5643 6974 4915 4969 4446 3364 3345 3076 2495 2356 2284 2316 2266 2090 1939 2085 2022 1772 1047 1129 1663 1535 1309
422 394 172 68 941 1041 1190 1813 2140 2260 2179 2210 2179 2562 2668 2506 2187 1549 1724 1435 1413 1490 1588 1341 1536 1554 1287 1060 1114 1052 1926 3014 2773 2780 2488 2717 2924 3344 3381 3587 3882 4023 3975 3678 3826 4299 4419 4324 4126 4504 4752 4762 4610 4139 3952 3688 3454 3607 4976 4724 4374 5128 4132 3136 4423 5773 5315 4809 4175 2401 2534 2474 2427 2343 2110 1874 1889 2161 2169 1914 1322 798 1359 1666 1422
984 944 690 598 500 1020 1128 1566 1895 1780 1753 1785 2119 1713 1917 2256 2127 1276 912 1226 1214 1147 1594 1581 1296 1460 1053 813 604 1478 2332 3274 2473 2216 2113 2214 2826 3093 3920 4284 3799 3712 3981 4202 4176 4026 4110 4220 4002 3931 3943 3736 3524 3655 3556 3388 3634 3753 3358 3831 3705 3581 3254 3657 4694 4130 3726 3758 3431 3243 2964 2910 2642 2229 2066 2200 2230 2316 2141 1805 1522 785 868 1320 1511
2300 2202 1603 1025 397 125 919 931 1203 1086 1218 1094 1278 1648 1623 1782 2100 1995 1361 1433 1576 1539 1490 1777 1681 1086 813 924 899 1353 2093 3231 3633 2069 1901 1860 1860 2024 2106 2346 3647 4904 4447 3949 3720 3991 4155 4010 3734 3496 3062 3039 3100 3051 2971 1831 1534 1168 2083 4396 3784 4478 3885 3912 3412 4751 4777 3273 3871 3650 4276 3194 2769 2740 2727 2617 2565 2396 2128 1971 1770 1411 1059 1010 1262
1228 1729 1186 1549 1639 1138 331 545 728 961 1145 821 30 1007 1462 1524 1627 2116 1783 1258 932 1278 1331 1059 1285 1279 1019 713 516 304 513 1190 2048 3343 2033 1665 1691 1703 1661 1630 1598 1821 2598 3704 4330 4418 4162 3785 3616 3277 2978 3052 3806 3782 3174 2096 2419 2494 4078 2175 3282 3131 3431 3382 3794 3551 6082 3763 3479 3848 4008 4726 4124 3723 3000 2737 2546 2480 2337 2052 1756 1602 1381 1264 1152
1607 1266 999 1669 1726 1536 1149 1322 707 736 967 651 8 0 698 1255 1367 1550 1652 1314 747 450 561 1071 1012 1171 1394 1320 1082 672 192 755 1699 1980 3118 2328 1551 1604 1574 1492 1425 1412 1378 1449 1882 3280 4392 5215 4659 3993 3527 3456 3338 3269 2968 2591 3087 2674 2620 2698 2014 1833 2536 3331 3302 2604 2724 5118 3908 4142 3235 3096 3624 3287 2846 3721 2645 2572 2323 2061 1866 1756 1686 1461 1277
1966 1819 1573 1598 1277 1992 1935 1496 1793 1723 978 470 1 0 0 379 1101 1252 1560 1037 847 627 518 621 845 1142 1396 1518 1586 1399 1068 822 1105 2225 2488 2890 2537 1962 1689 1685 2055 2070 1601 1302 1152 1023 1170 1998 3247 3921 4154 4261 4061 4190 4646 4430 3819 3466 3387 3308 3449 3375 3368 2640 2609 3082 3609 3916 4074 3577 2817 2709 2942 2654 2518 2627 2878 2493 2173 1928 1739 1606 1503 1485 1285
2320 2465 2256 2202 2117 1635 1861 1881 1758 1513 1241 1091 291 0 0 0 146 991 1352 1077 491 395 467 651 1001 876 1426 1714 1557 1487 1506 1528 1226 1083 2167 2765 3406 3336 2846 2292 2305 2382 2317 2247 1830 1236 803 749 857 1741 2921 3421 3616 3895 4261 4636 4531 4624 4378 3942 3617 3220 3360 3640 3489 3408 3167 3598 3244 2659 2093 1814 2059 2220 2064 2038 1564 1591 1536 1507 1457 1485 1495 1429 1260
2682 2444 1913 1663 1509 1621 1889 2095 1917 1800 1482 1290 1099 880 0 0 0 16 989 1356 915 537 488 562 602 874 1036 1388 2074 2149 1683 1629 1784 1386 1192 2080 2838 3535 4064 3864 3291 2796 2538 2320 2019 1720 1351 971 698 772 1144 2019 2224 2187 2293 2363 2827 3933 3982 3903 4200 4133 3610 3408 3461 3556 3274 2793 2158 1859 1783 1852 2213 2082 2054 1679 1368 1278 1315 1438 1480 1446 1427 1378 1149
2449 2288 2154 1875 1682 1586 1741 2226 2454 2168 1770 1803 1520 1178 918 724 76 249 810 1234 1305 1030 818 956 1166 1159 1103 1014 1132 1215 1819 2362 2237 1867 1602 1062 1452 2022 2701 3158 3473 3702 3701 3264 2829 2181 1531 961 684 298 162 613 1096 1258 1256 1247 1329 2156 4075 4822 4113 3519 3425 3450 3552 3634 3360 2601 1604 1156 1619 1842 2279 2255 2347 2385 1676 1357 1171 1327 1384 1360 1309 1205 1043
1717 1658 1835 1894 1855 1759 1768 2128 2186 2287 2160 2133 1842 1579 1328 1002 319 199 594 1162 1308 1372 1296 1423 1603 1835 1943 1913 1862 1318 1160 1297 1651 2196 2146 1889 1725 1858 2011 2236 2496 2778 3140 2901 2264 2286 2301 2067 1778 1410 1102 913 727 670 678 804 841 857 1107 1498 2632 3181 3052 3176 3279 3196 2656 1902 1535 1016 597 554 2365 2869 2396 2199 1716 1615 1620 1499 1421 1329 1244 1118 1063
1965 2005 1849 1756 1834 2296 1978 1717 2022 2346 2281 1829 1802 1777 1690 1450 1148 848 782 1098 1322 1458 1478 1660 1857 1874 1981 2209 2167 1833 1556 1490 1202 1334 1744 2009 2063 2398 2341 2195 2008 1873 1932 2091 2181 1989 1616 1557 1703 1760 1684 1525 1395 1188 1037 885 706 690 1325 1465 1579 2086 2389 2493 2388 2054 1690 1585 1350 1256 1078 1131 745 1322 2183 2056 2391 2092 1811 1813 1594 1397 1224 1116 1106
Wind_Speed
12 13 14 13 14 13 10 13 12 13 15 16 18 21 20 20 20 18 18 19 17 18 20 18 18 18 17 18 17 16 15 13 12 11 12 13 14 14 14 13 12 12 13 14 15 15 15 16 16 15 15 16 16 17 16 17 17 17 18 18 19 20 20 22 24 25 26 27 27 28 28 29 30 30 32 33 33 34 33 35 36 37 38 39 38
12 12 12 12 12 13 14 13 13 14 15 18 18 20 21 18 20 21 20 20 19 19 19 17 17 18 17 17 16 12 14 14 13 11 12 13 12 12 14 13 13 14 15 17 16 17 16 16 16 16 16 17 18 18 17 17 17 18 19 20 21 22 22 23 26 27 27 28 29 30 31 32 33 33 34 35 35 35 35 36 37 38 39 40 40
10 12 12 12 12 13 14 14 14 14 13 16 19 18 20 19 19 19 22 20 18 18 16 16 16 15 17 15 13 13 13 14 12 12 12 11 11 12 14 16 16 18 18 18 18 16 17 16 16 16 17 18 18 19 17 18 18 20 20 21 21 23 23 25 26 28 28 29 31 32 33 34 35 35 36 37 37 37 37 38 37 39 40 40 41
9 13 10 12 12 12 12 13 15 15 14 16 17 19 19 17 19 18 18 17 16 16 17 14 14 14 15 14 12 12 12 15 13 10 11 11 11 12 13 17 20 20 20 19 18 18 16 16 15 15 15 16 17 17 19 19 19 19 21 21 22 23 25 26 27 29 29 31 32 33 34 35 36 36 37 38 38 39 39 39 40 40 41 42 42
10 9 10 11 12 12 12 12 13 16 14 15 17 17 16 16 16 17 19 15 15 14 13 14 12 13 11 12 11 11 15 12 9 11 11 12 13 13 15 17 18 21 21 20 19 18 18 17 17 17 17 16 18 18 19 20 20 21 21 22 23 24 26 27 28 29 31 32 33 33 35 36 36 37 38 39 39 40 40 40 41 42 42 42 42
8 10 11 11 11 13 12 11 14 13 12 15 18 18 15 16 15 16 13 13 13 12 13 11 10 10 10 9 11 11 13 13 12 9 12 13 13 14 15 17 17 17 18 20 19 18 18 19 18 18 18 18 18 19 20 21 22 22 22 22 23 25 27 29 29 31 32 33 33 34 34 35 36 37 38 39 39 40 41 41 42 42 42 44 43
6 9 13 12 10 12 13 12 13 14 14 13 17 14 13 13 15 13 16 14 11 11 9 10 8 9 9 9 9 11 13 11 9 11 12 11 14 15 15 15 15 16 16 14 18 20 19 19 19 19 19 20 20 20 21 22 22 23 23 23 24 26 28 29 30 31 32 32 33 34 34 34 35 37 37 38 39 40 41 41 42 43 44 44 45
6 8 9 11 11 13 14 12 12 15 14 13 16 13 11 11 12 12 12 12 12 10 8 9 9 7 8 9 9 9 8 9 12 12 11 12 11 11 15 13 14 15 15 14 14 17 21 20 20 21 21 21 21 21 22 23 24 24 24 24 26 28 29 30 30 31 31 31 32 32 33 33 34 35 37 37 39 40 41 42 43 44 44 45 46
6 8 9 9 10 13 12 10 12 13 14 12 13 12 12 8 11 11 10 10 12 11 8 8 8 6 10 9 8 8 9 11 9 10 11 11 11 12 14 14 13 14 14 14 13 14 18 21 22 23 23 22 22 23 24 24 24 25 25 27 28 29 30 30 31 31 31 31 31 32 32 33 33 34 36 38 38 40 41 43 44 45 46 46 46
6 7 11 9 9 12 13 10 12 12 12 11 12 10 10 8 8 10 10 8 10 12 9 8 7 6 8 8 10 9 8 9 7 9 10 10 12 13 14 12 13 14 15 15 13 12 14 19 23 24 24 23 23 24 24 24 25 25 26 28 29 30 30 30 31 32 32 31 31 32 32 32 33 34 36 37 39 40 41 43 44 45 46 46 46
6 8 8 9 8 11 12 12 12 12 11 12 10 9 9 9 10 6 9 9 10 10 10 9 6 8 7 7 8 7 10 5 10 9 10 11 11 12 14 14 13 13 13 13 11 12 13 15 17 18 19 24 25 24 24 24 25 26 27 29 29 29 30 30 31 31 31 31 31 32 32 32 33 34 36 37 39 40 41 42 44 46 46 46 47
6 6 7 8 7 9 8 11 10 11 11 10 10 8 6 8 10 9 6 8 9 11 11 8 8 10 10 9 8 8 9 8 9 10 11 11 9 14 14 11 12 12 12 15 11 10 14 16 17 18 18 21 24 24 23 24 24 25 27 29 29 29 29 30 31 30 30 31 31 31 32 33 33 34 36 37 38 39 41 42 43 45 45 46 47
7 6 5 6 7 9 9 9 10 9 9 10 11 8 5 5 8 8 8 6 10 11 10 8 7 8 11 9 7 9 7 8 10 9 11 12 9 14 16 11 12 13 10 9 10 11 12 15 18 17 17 15 18 21 23 23 23 24 27 28 28 28 29 30 30 30 30 30 30 30 30 31 33 34 35 36 37 39 40 40 41 43 44 45 46
4 4 3 3 4 6 7 10 7 7 8 10 10 8 6 6 8 5 7 8 11 10 6 6 10 7 9 9 9 8 6 10 12 13 10 11 11 11 15 12 10 10 8 9 12 11 13 15 15 13 12 15 15 15 17 18 20 24 26 26 27 28 29 29 29 29 29 29 29 29 30 30 32 33 34 35 37 38 39 39 40 41 41 42 44
3 2 4 4 3 4 6 6 6 6 7 10 11 8 7 5 7 6 7 10 11 7 8 10 9 6 7 7 7 6 7 10 11 12 9 8 10 11 12 14 7 8 9 11 12 14 12 10 9 10 13 14 14 14 15 15 18 23 24 25 25 27 29 28 28 28 27 28 27 27 28 29 30 31 32 34 35 37 37 37 38 39 38 40 42
4 3 6 7 7 5 6 5 5 8 7 10 9 7 8 7 7 7 6 9 9 6 8 6 9 4 5 7 8 6 7 10 12 12 10 7 13 10 12 6 8 11 9 11 12 11 9 9 10 10 13 14 14 11 15 14 19 21 20 22 25 26 26 27 26 26 26 26 25 25 26 26 27 29 30 31 32 33 34 35 35 36 38 39 40
2 4 5 4 6 7 6 5 5 6 7 10 10 9 8 8 3 7 6 7 9 5 6 7 6 6 6 6 6 6 8 8 6 9 11 11 10 nan 14 9 5 10 14 8 8 9 10 10 10 12 13 13 12 14 16 11 11 13 16 21 23 23 21 23 25 24 24 24 24 24 24 24 25 26 27 28 29 30 31 32 32 34 35 36 37
6 4 2 2 3 3 4 4 5 4 7 9 9 10 7 8 5 6 6 8 8 7 4 8 4 6 8 5 5 5 7 10 7 8 11 12 10 nan 12 8 nan 9 12 8 12 9 11 9 10 11 12 12 13 13 12 12 10 12 14 16 20 17 18 20 22 23 23 23 23 23 23 22 22 23 24 24 25 27 28 28 28 30 32 32 33
4 3 1 2 2 1 4 3 5 4 5 6 8 10 7 8 4 4 7 7 8 7 5 4 7 8 7 7 7 6 6 6 7 9 10 12 13 nan 9 8 6 10 10 11 12 7 9 8 9 10 10 10 10 12 13 12 9 8 6 6 10 12 14 18 20 21 21 22 21 21 20 19 19 20 21 22 22 23 24 23 24 25 27 27 28
5 4 3 1 2 3 1 2 4 3 4 6 8 8 4 5 1 3 4 6 5 7 9 4 3 8 9 8 5 8 8 12 6 9 7 9 13 9 7 9 11 9 12 10 4 4 5 11 7 8 7 8 10 12 12 9 9 6 7 7 8 10 13 15 17 19 20 21 20 19 18 17 17 18 19 19 19 19 19 19 20 21 21 23 24
5 6 5 3 2 1 1 1 1 3 4 5 5 3 4 3 4 6 2 4 6 5 6 8 9 4 6 7 9 8 9 7 7 11 10 7 9 10 11 14 11 13 10 6 4 3 7 9 8 5 5 7 7 9 8 7 5 6 5 8 8 9 11 13 15 18 18 18 18 17 17 16 15 16 16 15 15 14 15 16 17 16 17 18 19
3 3 3 2 1 2 1 0 0 2 4 5 2 2 2 3 4 5 4 4 4 3 5 6 6 7 3 6 6 9 11 6 7 9 9 9 9 7 7 7 7 10 12 8 6 4 4 4 6 6 4 6 7 7 7 8 7 4 5 7 6 7 10 12 13 14 16 16 15 14 13 13 14 13 12 12 12 12 12 14 15 14 14 14 14
3 1 3 2 2 1 1 1 2 2 1 5 4 2 3 4 5 4 4 3 4 4 5 5 5 6 4 3 6 8 6 8 5 9 8 9 8 12 7 7 4 7 11 10 9 6 7 4 4 4 6 5 7 7 5 5 5 5 4 5 5 6 8 9 10 11 13 13 11 11 11 12 10 10 11 11 11 11 12 12 12 11 10 10 11
2 1 2 3 3 2 5 4 4 2 0 3 4 2 1 2 3 2 4 2 6 2 5 4 5 3 7 3 6 9 5 8 6 5 6 7 9 13 9 10 10 5 7 8 12 4 6 4 1 1 5 4 5 7 8 5 6 4 7 5 4 3 5 9 9 8 10 10 10 10 10 9 9 11 11 11 12 13 12 11 10 9 9 9 10
3 2 1 2 2 2 2 3 2 3 3 3 4 3 4 4 1 4 4 3 3 4 2 4 5 4 6 6 6 7 5 6 6 5 6 5 9 11 12 12 8 7 5 7 8 4 5 2 5 4 5 7 3 6 8 5 6 6 4 2 3 2 3 8 8 6 6 8 8 9 9 9 10 12 13 13 14 14 13 12 11 11 10 9 10
3 1 2 3 1 3 2 2 2 2 4 2 2 4 1 4 0 3 3 2 3 2 3 5 5 5 6 7 6 6 5 3 5 5 4 5 8 9 9 10 12 9 6 6 9 8 5 3 4 5 4 7 7 6 9 3 4 5 5 3 2 3 4 6 3 3 6 7 8 8 8 9 10 12 14 15 16 16 15 14 13 12 10 8 9
3 3 2 3 1 4 1 2 2 3 1 2 1 2 2 1 4 3 3 2 3 2 3 6 5 6 5 5 6 7 6 7 6 5 6 9 8 10 7 10 11 13 7 7 4 7 3 3 5 3 3 3 6 5 6 7 4 4 5 4 2 5 5 6 5 4 5 7 9 10 9 8 9 12 15 17 17 17 16 15 14 12 10 9 8
5 4 2 2 1 4 2 1 3 2 2 1 0 1 2 1 2 4 2 3 3 2 4 4 5 3 4 4 4 7 8 6 7 6 6 7 8 9 9 7 8 11 12 8 5 6 4 1 5 4 3 3 4 5 3 4 4 1 7 6 4 2 6 8 9 7 7 9 10 12 10 8 10 12 14 17 18 17 17 15 13 12 10 9 7
5 4 3 3 4 4 2 2 3 3 2 1 1 1 2 2 2 5 3 4 0 3 3 4 3 4 2 3 3 3 5 6 7 6 2 3 7 9 9 6 6 9 10 11 8 8 8 6 3 3 4 3 1 2 1 3 5 5 5 5 6 4 6 11 12 10 10 11 11 13 12 10 11 13 14 16 17 17 16 15 13 12 10 8 6
4 3 4 4 4 4 3 3 3 2 2 1 1 0 1 2 3 4 3 3 2 2 3 3 2 3 3 1 1 3 2 4 3 6 3 3 3 6 8 5 5 7 8 9 11 9 9 10 7 3 3 1 1 2 2 5 6 4 5 4 9 7 11 13 14 13 12 13 12 15 16 14 12 13 14 15 16 16 15 14 13 11 9 7 6
5 7 6 5 6 5 4 4 4 3 2 1 1 2 0 2 2 3 4 2 2 3 3 3 2 3 3 3 2 1 2 2 3 3 1 2 3 6 9 5 5 6 6 8 9 9 10 9 8 8 1 2 6 6 6 6 4 3 6 5 9 14 15 13 16 15 14 15 15 17 19 18 16 16 16 16 16 17 15 14 12 11 9 7 6
6 7 6 6 5 5 4 3 3 2 2 1 2 0 0 1 2 2 2 1 3 4 3 3 4 1 2 3 4 5 6 7 5 6 6 4 4 1 4 5 6 5 6 5 6 8 8 9 9 9 10 5 4 4 6 5 6 3 6 3 11 17 14 13 15 17 16 16 15 18 21 21 20 18 17 17 17 17 16 15 13 11 10 8 6
7 6 6 6 6 6 5 4 3 4 3 2 2 2 1 1 2 1 2 0 2 3 4 4 5 1 0 1 2 3 4 4 5 5 5 3 4 5 6 4 3 3 2 3 3 6 6 7 7 6 7 8 6 6 4 3 7 5 5 6 10 11 14 16 15 16 18 17 16 19 22 23 23 22 20 19 18 17 16 15 13 11 10 9 7
8 7 7 5 7 7 4 6 4 6 6 3 2 2 2 1 1 1 1 0 0 3 3 3 4 5 1 1 2 2 2 3 5 4 4 4 2 3 2 3 3 2 2 3 2 4 6 7 6 6 7 7 5 4 5 7 5 8 6 6 4 7 14 16 18 17 19 19 18 19 22 25 25 25 24 22 19 18 17 15 13 11 10 9 8
10 9 9 5 8 8 6 8 7 6 8 6 2 2 3 3 0 2 0 2 1 1 2 3 3 4 4 2 2 2 3 1 2 4 5 5 6 4 3 2 2 3 3 4 6 5 5 6 7 7 6 8 9 9 9 7 6 7 6 5 5 9 12 13 17 20 22 21 21 19 22 26 26 26 26 25 22 19 17 15 14 12 10 10 9
11 10 11 9 9 9 8 9 10 7 9 8 5 3 4 4 3 1 4 3 2 0 2 2 2 3 3 2 2 2 2 2 1 3 4 6 7 8 8 7 5 5 5 8 7 6 6 6 7 7 9 8 8 10 9 8 9 8 9 10 10 9 9 11 16 20 22 23 22 21 22 25 27 27 27 26 25 22 18 15 14 13 11 10 10
13 13 12 12 12 12 10 9 9 9 8 9 8 5 4 5 4 3 1 3 3 2 2 4 4 3 2 2 1 1 2 2 2 1 2 2 5 6 7 7 7 8 8 8 8 7 7 6 6 6 7 8 8 7 8 8 8 9 10 11 12 11 13 9 17 19 24 23 20 21 21 23 24 24 25 26 25 23 21 17 16 15 14 12 11
14 16 14 13 14 14 13 11 10 10 9 9 9 7 6 6 6 5 4 3 3 4 3 3 3 4 3 3 2 1 1 0 1 1 1 1 2 3 5 7 7 7 7 7 6 6 7 7 7 8 8 8 9 8 8 9 9 10 10 12 11 10 12 12 17 16 18 18 19 19 18 19 21 21 21 22 24 22 20 18 17 17 17 15 13
14 14 18 16 16 16 15 14 11 11 11 10 10 9 6 6 8 7 5 6 4 4 3 2 2 3 2 2 2 1 1 1 1 1 2 2 2 3 4 4 6 7 7 6 7 7 8 8 8 7 7 7 7 8 8 7 8 10 10 10 10 11 11 15 14 16 15 15 17 21 21 21 23 20 20 20 21 21 20 19 18 18 18 17 16
14 14 16 20 19 17 17 15 14 13 13 12 11 11 9 7 8 10 7 5 5 4 4 4 2 1 3 1 1 2 3 2 2 2 2 3 5 4 3 5 5 5 5 6 7 7 7 8 7 8 8 8 10 10 11 12 12 11 11 10 9 11 11 14 15 12 13 16 15 16 18 20 21 20 21 19 19 21 21 18 18 20 20 20 19
14 15 14 nan 21 19 18 17 15 14 14 13 13 13 12 10 8 8 9 7 5 5 5 4 4 3 3 2 2 1 4 7 8 6 3 3 5 5 5 6 6 6 6 6 6 7 7 7 7 9 9 9 9 9 9 8 7 7 10 11 10 14 15 13 12 13 13 13 11 16 16 21 21 20 20 19 17 20 19 19 18 20 21 21 21
19 18 18 17 17 19 19 19 17 14 13 14 15 16 16 14 12 9 10 10 8 6 6 6 4 5 4 1 2 1 4 9 11 11 9 7 5 4 7 8 7 7 7 7 7 7 6 7 7 8 7 7 7 7 6 5 5 6 7 9 9 11 13 12 14 14 13 12 12 16 16 17 21 21 21 21 21 22 21 20 18 20 22 23 23
22 22 20 17 14 15 18 18 16 14 12 12 17 20 20 18 16 14 12 12 12 9 7 7 7 6 6 5 5 3 3 4 7 10 10 9 8 5 3 3 6 8 8 8 8 8 7 7 8 8 7 7 7 8 7 8 7 8 9 11 11 14 14 16 14 14 14 12 12 14 16 19 20 19 18 21 22 23 24 24 26 27 27 26 25
29 28 20 17 17 15 15 16 15 14 12 10 nan 21 22 21 19 17 15 13 12 12 10 8 8 7 6 5 5 3 6 6 8 9 8 9 9 8 7 5 4 4 6 8 9 8 7 6 6 7 8 8 8 8 6 5 4 5 9 11 11 12 12 12 13 13 14 15 12 13 13 16 14 13 18 19 20 22 23 29 32 31 29 29 28
24 23 23 22 17 15 14 16 16 16 14 12 nan nan 21 22 22 19 16 15 14 12 12 12 10 9 9 8 7 7 6 5 7 10 12 10 9 11 9 7 5 5 5 6 6 7 9 7 6 7 8 8 6 5 5 4 6 5 5 6 9 8 8 9 10 11 11 15 13 11 11 13 15 13 11 16 22 21 24 30 34 32 29 28 28
24 23 22 22 21 19 15 14 16 16 15 14 nan nan nan 22 23 22 17 15 14 13 14 14 13 12 11 10 9 8 8 8 11 12 13 13 12 11 9 8 6 4 4 4 6 7 6 6 6 6 8 9 7 9 8 8 8 7 8 8 10 10 10 10 11 12 13 16 15 12 10 12 15 13 12 14 21 23 23 29 35 32 29 27 27
25 25 24 25 25 23 21 17 16 13 12 11 19 nan nan nan 22 24 20 16 13 13 13 15 15 15 15 13 11 9 10 11 11 10 14 16 16 15 12 10 8 8 9 9 10 12 10 9 7 5 6 7 7 7 9 10 9 11 12 12 13 13 12 12 12 13 13 16 15 14 10 10 14 14 11 15 21 21 22 27 31 32 30 28 27
24 24 23 24 23 21 19 17 14 14 13 11 16 21 nan nan nan nan 22 19 15 13 13 13 15 16 16 16 16 14 12 12 11 10 11 16 18 17 16 14 12 11 9 10 11 11 10 10 8 7 7 8 8 8 9 10 11 12 12 12 15 16 14 12 12 14 15 18 19 17 13 13 16 16 15 19 22 21 24 24 27 30 31 29 29
24 22 20 21 25 24 21 19 17 17 16 17 18 22 21 19 nan 24 22 21 18 15 13 14 15 15 16 17 16 15 15 15 14 14 13 15 17 16 17 16 15 13 12 14 14 13 13 11 11 11 10 9 9 10 11 11 12 15 16 16 18 20 18 16 17 18 18 20 21 22 18 15 18 19 19 21 24 22 23 25 26 28 31 30 30
25 24 23 22 23 25 23 21 19 21 20 21 20 24 23 24 27 26 24 24 21 19 16 16 17 17 16 13 14 16 15 15 15 17 17 20 18 16 16 17 16 14 14 15 18 18 15 14 13 12 13 12 12 11 12 13 14 19 20 18 20 23 20 20 18 20 20 23 25 26 20 16 21 23 21 24 27 21 23 23 27 29 30 29 30
26 25 25 25 24 25 25 25 24 22 24 23 20 25 25 27 29 28 28 28 25 22 20 19 19 19 19 17 14 15 16 16 15 18 20 22 20 18 18 18 15 13 16 20 20 18 22 20 15 15 12 10 11 13 14 16 18 22 23 22 22 23 20 19 19 19 18 21 26 29 23 21 21 24 26 25 25 25 24 25 26 27 28 28 28
Wind_Direction
72 80 88 89 90 94 104 96 95 90 95 93 87 89 89 95 99 94 92 92 93 92 93 97 101 106 102 98 99 95 95 92 78 63 64 64 63 57 41 39 41 44 50 58 61 65 68 67 67 65 62 59 57 56 57 58 64 64 64 62 62 61 61 64 67 65 65 63 60 60 57 55 55 51 51 50 47 46 43 40 38 37 35 35 36
76 89 97 99 105 105 100 93 90 89 90 90 85 85 85 87 91 96 89 90 92 94 94 94 94 98 99 90 90 99 92 83 77 68 64 62 61 54 43 44 48 54 58 62 65 66 66 64 66 64 61 57 53 56 58 61 62 66 63 64 63 62 63 67 68 68 66 65 63 62 60 57 56 55 53 52 50 49 47 44 41 39 38 36 37
77 80 86 96 98 98 103 102 96 93 95 93 93 91 93 88 85 87 95 93 97 97 100 98 98 93 99 105 92 82 82 79 75 65 59 61 56 57 53 49 53 58 64 64 69 71 70 68 66 64 57 58 57 57 61 62 65 65 65 65 67 67 68 66 68 70 68 65 64 63 60 59 57 55 52 51 50 50 49 46 43 41 39 38 38
84 90 83 91 98 99 103 110 110 103 88 82 83 83 85 84 88 85 88 90 92 92 92 96 98 100 90 92 102 94 87 79 70 64 60 54 54 61 63 64 59 60 61 63 66 69 71 71 72 69 67 66 64 63 64 70 71 70 70 69 69 71 71 70 68 69 68 66 66 64 61 60 58 56 53 51 49 49 50 48 43 42 40 38 38
81 90 93 102 108 109 105 106 102 95 103 112 104 92 83 87 86 80 84 86 89 94 93 89 88 90 91 85 91 96 92 99 87 64 57 49 53 57 64 67 68 62 62 65 65 65 67 66 63 63 62 59 61 62 68 70 71 71 70 70 72 74 74 73 72 70 69 67 66 64 62 60 58 56 53 52 50 50 50 49 47 42 42 40 39
107 113 103 98 107 116 111 105 102 105 101 88 88 91 96 86 85 85 84 85 86 87 87 96 98 92 95 95 94 95 101 98 82 69 58 59 58 58 57 63 66 69 70 64 65 65 64 63 63 62 60 60 58 65 72 75 73 72 74 75 77 78 77 76 74 72 71 69 67 65 62 60 58 57 55 53 51 50 50 49 48 45 43 41 40
114 114 112 107 106 112 112 113 115 111 104 96 100 100 96 102 107 107 111 91 91 97 100 101 88 96 100 84 79 77 91 96 103 83 73 67 65 65 62 60 64 67 70 74 70 67 63 63 63 62 60 58 62 69 74 75 76 77 77 78 79 80 79 78 76 74 72 70 68 66 63 61 59 57 55 53 52 51 50 49 48 46 43 42 40
113 105 100 111 115 110 118 115 115 109 102 106 99 98 103 104 106 109 114 121 116 99 94 89 90 84 90 97 105 103 100 86 74 74 75 71 80 82 85 72 65 71 70 72 71 67 59 60 59 59 57 59 65 72 76 77 78 79 82 83 82 80 79 79 78 77 74 72 69 66 64 62 60 57 56 53 51 50 49 48 48 46 45 43 42
119 110 107 93 108 111 104 108 101 94 99 99 100 99 95 98 112 114 111 117 114 110 91 89 88 85 90 95 110 117 107 91 78 72 64 68 72 73 72 80 82 70 75 69 67 66 56 55 53 54 56 62 69 75 77 78 78 80 82 81 81 80 80 80 80 78 75 72 69 68 65 63 60 58 56 54 53 50 48 47 46 46 45 43 43
126 126 123 130 130 125 121 118 112 113 108 111 105 104 106 116 108 103 110 111 109 103 88 94 93 100 112 130 114 92 76 78 81 74 66 71 77 80 84 77 81 79 79 75 56 55 56 54 53 54 59 66 72 74 76 78 79 81 82 81 80 80 81 80 79 77 75 72 70 68 66 63 61 58 57 55 53 52 49 47 45 45 44 42 42
139 138 139 134 145 133 133 125 116 117 119 117 109 117 120 118 112 95 103 111 106 106 115 114 116 109 112 102 94 106 93 84 74 83 68 68 80 87 78 85 81 84 83 82 65 46 49 56 58 64 70 69 72 72 74 75 78 80 80 80 80 80 81 80 78 77 75 73 70 68 66 64 62 59 56 55 54 51 49 47 45 44 43 42 40
150 140 140 147 140 128 122 109 110 112 117 120 115 104 123 116 121 115 105 113 117 109 96 104 136 141 124 114 110 97 105 74 70 69 73 79 89 90 93 83 87 83 73 75 68 47 43 57 60 64 71 68 66 72 71 73 77 79 79 80 80 80 81 80 79 77 76 73 71 68 66 64 62 60 58 55 52 50 49 47 46 44 43 42 41
161 143 147 155 142 134 123 120 110 111 125 115 121 110 87 97 99 103 118 119 110 106 110 137 130 117 106 103 103 99 78 97 85 72 78 87 84 85 90 92 90 75 91 83 82 54 52 55 68 64 65 72 70 72 71 74 76 77 79 80 80 80 80 80 79 77 75 73 71 67 64 61 60 58 56 54 52 51 50 48 47 46 44 42 41
147 141 133 143 134 121 116 118 121 120 112 105 100 106 92 93 81 95 107 110 88 86 117 112 110 99 93 104 103 93 89 75 65 68 61 82 86 97 110 98 81 86 80 79 77 78 57 62 70 80 64 69 72 72 79 80 81 78 79 79 79 80 79 79 78 77 75 74 73 69 66 62 61 59 55 53 52 51 50 49 48 47 46 45 44
111 153 156 158 145 112 109 110 117 103 100 95 91 88 86 96 114 123 112 95 101 114 124 122 108 93 112 105 105 88 97 99 97 89 75 87 97 87 86 89 87 75 61 61 66 69 75 70 85 84 88 91 72 70 79 79 76 73 74 76 77 78 79 79 78 77 76 75 72 69 66 64 62 60 56 53 51 50 49 49 49 50 48 45 45
118 166 198 177 146 143 135 136 110 99 105 94 87 76 74 63 63 78 90 91 79 84 91 92 91 91 86 92 75 75 86 92 80 79 89 98 91 88 91 118 118 108 90 58 59 71 70 64 69 81 89 83 96 86 77 71 70 70 68 73 73 75 78 80 80 79 78 77 74 71 68 66 62 60 59 56 54 51 48 48 48 50 50 47 43
177 185 205 177 145 161 146 125 110 110 93 92 85 73 62 68 70 79 81 104 116 116 100 96 120 129 98 92 106 111 108 95 96 121 134 116 102 nan 131 115 95 84 93 93 73 66 66 59 62 75 78 86 91 91 93 94 84 86 78 72 72 75 79 78 79 80 80 78 76 73 69 65 62 62 61 58 55 51 48 46 46 47 49 50 48
181 159 207 156 135 138 117 115 78 94 105 101 90 104 73 70 48 83 96 100 108 109 140 125 135 119 112 113 97 95 91 113 130 116 118 124 136 nan 110 114 nan 87 88 87 88 76 59 58 65 67 82 83 82 90 95 98 88 83 83 82 74 77 79 77 80 84 82 80 76 73 70 67 62 63 59 58 56 51 48 44 43 45 47 49 51
31 62 283 25 78 56 74 78 81 53 78 92 92 82 66 82 43 93 101 111 138 135 129 138 141 115 88 71 94 107 85 111 121 119 130 133 126 nan 98 102 71 67 75 72 73 73 87 72 52 77 83 90 89 91 95 97 78 107 161 110 86 84 86 83 82 83 82 80 77 73 71 67 61 59 57 54 52 49 45 42 41 43 46 49 49
358 18 355 28 20 59 60 117 104 65 68 78 76 72 54 60 110 87 88 129 138 142 140 144 106 113 138 134 123 123 133 115 115 112 106 114 132 123 97 80 71 62 50 61 69 87 97 103 87 63 79 90 92 103 109 134 163 150 120 101 96 93 85 85 83 79 79 78 77 72 67 62 58 54 50 49 45 45 41 36 36 39 45 50 52
342 359 350 342 20 296 160 183 169 101 82 92 89 80 28 28 2 58 85 104 107 142 132 144 138 120 139 132 142 116 96 100 132 118 116 132 124 150 147 143 140 141 139 90 22 45 62 75 105 79 77 83 102 114 141 147 144 134 103 101 95 87 88 86 82 81 79 77 73 67 59 53 50 48 45 40 38 36 34 32 31 34 38 44 48
318 12 325 319 282 250 224 194 3 124 162 126 102 55 22 23 35 39 50 64 105 106 109 122 114 142 114 132 130 119 125 111 89 106 142 131 111 120 116 116 138 124 114 140 128 47 64 83 94 108 144 146 148 146 164 150 139 126 108 77 95 92 87 83 78 79 76 73 71 65 56 45 40 39 34 27 20 17 22 25 26 28 30 35 42
305 35 319 312 268 226 270 264 204 211 155 126 117 56 0 30 31 38 50 62 84 84 107 122 122 129 119 114 102 99 86 111 133 129 115 115 130 126 109 115 117 126 140 137 129 148 118 66 91 184 136 168 153 152 143 139 155 145 92 75 82 95 85 83 73 71 75 74 68 56 46 39 30 20 16 8 1 1 6 16 22 24 23 27 29
274 325 322 331 255 167 207 221 207 162 104 106 128 170 146 40 42 2 66 23 75 89 78 76 96 90 113 66 70 96 100 112 105 109 125 130 134 128 143 130 134 132 119 119 115 125 127 186 187 181 188 170 165 146 145 173 151 109 99 55 62 80 68 86 69 61 63 63 52 44 39 26 8 5 5 358 352 350 354 1 7 10 14 14 15
240 328 359 318 252 233 220 184 239 117 193 218 163 172 155 114 312 38 53 55 75 74 86 77 75 87 71 83 70 65 79 96 114 84 129 120 117 122 133 132 121 130 129 113 130 127 99 130 224 197 203 173 178 153 162 173 159 117 172 342 12 351 36 76 61 45 39 35 34 37 27 8 1 359 2 356 350 345 344 348 352 3 8 7 11
295 291 323 294 224 244 245 201 212 229 243 229 172 114 122 144 9 89 60 69 77 53 69 74 94 97 109 128 119 121 124 102 104 141 95 99 106 116 132 135 147 126 129 140 136 150 149 208 240 215 208 182 180 186 170 177 149 124 235 331 307 334 10 48 30 30 12 16 12 16 12 4 356 352 352 351 347 340 341 343 351 0 4 5 12
276 256 247 267 167 252 224 274 246 262 276 305 34 60 122 204 143 84 106 58 101 63 53 72 50 66 97 114 150 134 125 151 125 83 154 141 156 157 160 153 142 135 127 135 139 118 144 178 284 280 261 199 183 188 172 176 192 172 155 302 283 326 4 352 321 343 343 345 345 352 356 355 351 350 349 344 343 340 339 344 350 355 358 2 12
254 264 290 304 224 264 269 253 256 261 234 193 189 152 117 141 170 120 138 99 84 84 91 70 74 60 74 112 129 123 148 116 134 157 183 170 168 148 144 131 148 142 140 125 125 128 129 193 203 253 257 237 181 179 187 146 224 155 205 278 282 318 3 322 312 321 329 330 335 333 335 335 340 346 346 344 342 341 339 342 347 349 352 358 5
236 261 277 242 239 248 236 272 246 242 245 217 149 226 118 160 121 111 107 108 44 97 95 97 101 75 43 71 107 113 123 146 152 146 216 175 149 151 148 160 143 147 141 144 155 159 148 178 220 182 228 198 167 171 261 203 235 230 216 273 309 304 330 318 307 313 319 326 327 324 318 319 328 336 340 342 342 341 340 341 343 344 346 350 356
240 267 249 263 243 255 223 212 258 227 245 296 151 150 201 109 88 105 108 116 121 84 93 98 95 123 113 66 1 117 116 129 135 127 201 161 140 136 129 144 159 155 148 153 151 153 153 162 189 192 157 58 34 140 169 242 273 254 243 233 295 304 327 315 306 308 314 317 325 320 312 309 317 327 330 335 338 337 338 337 338 337 334 343 344
205 237 257 261 245 251 232 220 241 242 235 239 262 209 128 137 130 110 120 175 131 109 90 88 101 117 135 147 235 170 146 122 116 96 177 231 177 141 149 174 168 171 166 165 163 160 173 166 170 197 201 105 221 215 195 238 271 258 243 255 279 311 320 307 307 311 311 316 320 317 312 311 317 323 326 329 331 331 333 334 332 327 325 327 329
231 226 242 253 259 271 265 253 260 266 248 199 305 274 281 150 120 101 121 119 116 106 93 86 74 13 138 161 189 185 187 177 172 169 170 193 209 201 141 178 191 178 180 180 160 152 169 158 174 179 153 222 224 254 237 210 289 293 263 266 293 307 308 305 309 315 315 316 322 319 315 315 317 322 324 325 327 327 324 325 325 323 323 322 318
237 246 240 245 250 254 268 259 280 265 252 228 243 243 254 234 149 183 137 338 104 119 130 136 113 178 139 176 180 193 190 188 183 176 168 186 205 192 183 205 212 204 197 197 171 152 167 172 183 176 172 203 206 236 227 243 259 279 258 253 286 306 304 307 309 316 315 317 321 319 316 314 317 319 320 320 321 321 319 320 321 322 322 321 322
241 257 249 247 261 266 262 273 254 278 279 258 313 272 274 246 148 103 118 269 61 141 168 146 150 141 193 146 164 149 201 180 188 189 188 169 249 244 231 171 205 200 217 254 231 207 185 196 177 195 197 199 188 245 251 248 233 249 245 259 242 281 303 298 307 307 317 317 322 322 317 314 316 318 318 318 316 317 317 317 317 322 322 324 324
247 250 265 265 250 260 266 258 271 268 285 300 291 282 288 294 289 126 137 293 275 140 150 167 155 157 146 172 122 133 108 118 173 179 185 187 193 227 276 272 227 212 222 261 250 235 221 215 215 209 221 227 224 226 235 245 256 268 272 272 279 257 283 305 296 302 317 319 321 322 317 315 315 316 316 315 314 316 317 316 315 316 324 325 334
265 250 258 269 262 261 262 260 269 271 284 298 305 313 304 305 297 196 172 237 276 274 168 187 164 166 153 151 130 125 122 139 210 200 192 191 197 205 207 232 241 227 226 236 253 252 242 224 235 231 229 225 238 237 233 242 250 265 276 274 268 280 272 282 295 291 308 316 317 322 320 316 315 316 317 315 314 316 319 320 317 317 322 328 329
262 263 250 256 265 268 273 271 270 278 282 295 302 320 314 302 304 304 240 198 215 231 197 190 181 198 197 157 146 158 153 162 188 193 181 183 204 202 214 217 222 226 221 219 219 236 245 243 232 237 237 242 248 254 258 253 264 263 265 278 285 286 290 289 287 282 297 307 312 319 320 318 318 319 318 317 318 319 320 322 321 318 322 325 331
250 265 265 257 260 269 271 274 273 277 279 284 294 303 314 312 305 313 299 274 226 225 224 203 200 201 189 200 200 236 311 346 143 189 243 206 226 214 206 222 239 242 241 237 245 239 237 239 240 228 241 236 240 251 264 270 268 265 261 263 259 266 290 299 294 295 297 302 306 311 316 320 325 327 324 320 322 325 326 326 325 323 323 329 337
255 257 271 268 260 265 274 276 281 279 282 288 283 290 289 285 297 307 310 303 287 267 243 222 210 220 211 204 225 242 240 282 303 240 256 278 237 220 237 239 221 228 237 252 254 250 249 244 240 243 238 244 251 248 254 271 278 285 281 273 275 279 276 293 298 305 307 303 311 320 324 330 330 331 332 330 329 330 334 334 330 328 327 335 341
255 253 260 273 269 267 271 277 276 277 283 287 284 285 288 275 276 292 304 299 309 292 278 280 267 232 265 287 61 311 327 295 297 275 257 262 274 272 252 242 256 256 235 227 235 246 252 250 251 245 248 242 252 258 261 260 261 270 286 285 288 289 292 285 290 302 306 309 302 305 310 319 322 325 325 334 334 333 337 339 336 333 334 335 341
253 249 248 nan 272 275 273 272 275 279 289 294 289 288 285 287 267 270 286 300 295 286 287 282 282 267 232 233 283 330 298 335 348 332 340 303 271 282 284 274 270 270 267 258 236 230 235 241 237 243 239 242 247 254 255 263 282 297 290 296 294 291 285 281 283 296 300 304 314 304 305 310 315 322 323 329 332 330 334 344 340 342 340 340 340
248 247 245 240 256 275 275 276 277 282 282 287 292 308 300 286 284 276 269 271 275 274 273 268 265 282 297 282 197 54 1 346 344 346 351 353 336 282 263 280 293 289 280 270 269 262 246 240 249 248 248 250 250 263 282 290 291 283 281 285 292 290 291 302 302 300 304 305 303 300 310 304 309 312 318 328 325 327 322 335 341 341 342 344 340
235 245 245 242 239 252 275 279 282 285 285 285 302 306 308 308 291 284 273 264 268 272 270 263 261 254 250 257 254 213 205 269 318 341 339 347 349 349 356 318 278 268 273 285 282 279 275 272 269 269 265 256 252 244 247 257 259 265 275 280 299 291 296 292 295 297 307 319 316 312 309 313 315 317 318 320 323 319 319 329 342 345 342 341 341
227 222 235 247 244 238 255 277 285 284 285 294 nan 310 310 312 304 288 285 278 272 273 275 273 267 264 262 253 245 240 252 264 267 295 320 337 338 346 358 7 19 343 302 278 276 279 290 290 283 282 270 273 273 281 281 280 279 264 260 256 266 275 284 294 300 309 308 314 323 317 321 309 318 322 316 323 323 316 317 322 334 335 336 337 339
257 251 242 231 240 256 250 250 268 286 287 302 nan nan 313 314 314 304 287 286 287 282 277 280 280 271 265 268 266 250 230 267 293 286 290 302 326 342 346 359 10 11 343 332 311 291 267 263 276 281 291 286 291 290 282 264 256 252 253 260 274 277 284 294 306 303 307 305 306 313 319 314 311 313 314 325 322 319 309 315 326 330 332 333 332
251 248 248 248 238 231 247 258 252 251 261 286 nan nan nan 314 314 305 291 291 287 289 287 285 284 285 284 277 271 268 266 250 248 259 270 281 282 286 286 280 276 307 337 343 336 333 310 289 280 285 286 283 294 287 287 279 274 279 281 289 288 290 294 305 305 309 304 305 313 306 302 305 312 319 323 312 308 311 309 320 326 329 333 334 331
249 252 250 244 239 233 224 233 246 247 254 244 274 nan nan nan 310 300 293 293 285 279 278 276 276 276 277 284 286 284 275 270 268 262 262 270 276 277 280 280 280 275 278 284 287 286 290 292 306 310 300 299 299 299 293 290 291 288 290 296 297 293 294 289 289 294 296 301 305 304 315 316 308 315 328 319 311 307 307 318 326 328 334 336 333
245 246 254 259 254 241 231 227 235 251 255 257 269 281 nan nan nan nan 286 285 281 273 270 270 269 268 267 267 267 272 275 275 281 294 276 264 267 276 278 276 271 269 272 286 303 301 298 301 305 309 312 328 332 321 314 308 296 295 296 298 296 293 293 295 303 298 302 305 314 316 312 316 313 316 315 303 308 305 306 311 326 329 332 335 331
235 240 247 256 255 247 235 228 228 234 240 254 265 278 284 288 nan 259 273 273 271 267 260 260 261 264 266 265 263 259 261 264 276 288 284 276 260 264 268 270 267 263 263 267 293 313 317 325 330 341 351 353 349 349 345 339 315 296 287 293 301 299 300 304 305 304 309 307 303 304 307 311 309 312 311 305 308 306 310 316 315 326 329 329 327
232 233 236 243 251 251 244 237 235 231 231 237 249 268 278 281 280 269 268 266 264 259 254 251 250 249 255 271 268 261 258 256 264 276 280 273 263 263 263 262 262 261 257 253 252 273 312 323 335 340 340 344 345 340 327 321 321 301 303 310 302 294 299 303 305 305 305 304 300 293 290 293 289 296 299 295 292 297 306 306 309 311 318 319 324
236 232 235 238 242 244 242 240 237 233 232 230 233 256 267 274 274 266 266 265 264 262 259 252 249 244 244 248 261 265 263 261 267 265 269 269 263 263 263 260 260 258 257 256 258 253 261 271 270 275 270 279 288 294 303 320 314 304 302 304 297 296 299 301 301 295 296 301 299 298 305 302 299 296 295 292 297 298 299 300 303 305 307 308 311